Location: *
(52.2090°N, 4.1550°W)
Time: 20:16:55
(UTC+00:00)

Cosmos 1782 - Pass Details

Date: 19 July 2019
Orbit: 537 x 553 km, 82.5° (Epoch: 18 August)

Event Time Altitude Azimuth Distance (km) Brightness Sun altitude
Rises 22:11:24 0° 350° (N) 2,744 7.8 -11.6°
Reaches altitude 10° 22:13:35 10° 351° (N) 1,843 6.7 -11.8°
Maximum altitude 22:17:39 79° 79° (ENE) 568 2.8 -12.1°
Enters shadow 22:20:31 18° 165° (SSE) 1,364 4.2 -12.3°
